WMT7978 LUKK-LZIB

Flight info

Callsign WMT7978
Flight time N/A
Altitude 38000
Route NUNTA DCT REPTO DCT PITOK DCT KALIF DCT SLC/N0368F240 N190 NIT
Aircraft A320/M-SDE1E2E3FGIJ1J4RWXY/LB1

Departure

Time 2026-05-04 17:58
Airport Chişinău International Airport (LUKK)

Arrival

Time N/A
Airport M. R. Štefánik Airport (LZIB)
Time Latitude Longitude Altitude Speed Heading
2026-05-04 17:27 46.93504 28.93011 352 ft 0 kts
2026-05-04 17:31 46.93503 28.93011 352 ft 0 kts
2026-05-04 17:47 46.93496 28.93010 356 ft 3 kts
2026-05-04 17:47 46.93477 28.93013 350 ft 3 kts 331°
2026-05-04 17:47 46.93463 28.93030 352 ft 3 kts 299°
2026-05-04 17:47 46.93457 28.93047 356 ft 1 kts 289°
2026-05-04 17:48 46.93456 28.93051 354 ft 3 kts 289°
2026-05-04 17:48 46.93456 28.93052 354 ft 0 kts 289°
2026-05-04 17:53 46.93457 28.93047 356 ft 2 kts 289°
2026-05-04 17:53 46.93464 28.93015 354 ft 7 kts 284°
2026-05-04 17:53 46.93479 28.92863 350 ft 19 kts 276°
2026-05-04 17:54 46.93479 28.92781 356 ft 9 kts 248°
2026-05-04 17:54 46.93420 28.92752 352 ft 10 kts 191°
2026-05-04 17:54 46.93341 28.92740 355 ft 13 kts 185°
2026-05-04 17:54 46.93248 28.92725 360 ft 12 kts 192°
2026-05-04 17:55 46.93219 28.92618 353 ft 13 kts 279°
2026-05-04 17:55 46.93232 28.92486 355 ft 13 kts 276°
2026-05-04 17:55 46.93241 28.92361 364 ft 12 kts 276°
2026-05-04 17:55 46.93252 28.92222 363 ft 16 kts 276°
2026-05-04 17:56 46.93252 28.92042 370 ft 13 kts 234°
2026-05-04 17:56 46.93167 28.92011 372 ft 13 kts 191°
2026-05-04 17:56 46.93075 28.91983 371 ft 14 kts 189°
2026-05-04 17:56 46.92985 28.91984 375 ft 12 kts 176°
2026-05-04 17:57 46.92905 28.91993 379 ft 11 kts 178°
2026-05-04 17:57 46.92831 28.91997 382 ft 10 kts 178°
2026-05-04 17:57 46.92763 28.92016 383 ft 10 kts 139°
2026-05-04 17:57 46.92759 28.92163 378 ft 28 kts 92°
2026-05-04 17:58 46.92776 28.92773 360 ft 94 kts 88°
2026-05-04 17:58 46.92795 28.93994 326 ft 147 kts 88°
2026-05-04 17:58 46.92834 28.95691 431 ft 178 kts 88°
2026-05-04 17:58 46.92880 28.97468 1192 ft 171 kts 87°
2026-05-04 17:59 46.92913 28.99197 1932 ft 170 kts 87°
2026-05-04 17:59 46.92947 29.01022 2264 ft 190 kts 86°
2026-05-04 17:59 46.93394 29.05293 2931 ft 238 kts 57°
2026-05-04 18:00 46.94626 29.06960 3591 ft 250 kts 26°
2026-05-04 18:00 46.96308 29.07476 4519 ft 256 kts 358°
2026-05-04 18:00 46.98037 29.06782 5465 ft 262 kts 340°
2026-05-04 18:00 46.99720 29.05626 6418 ft 265 kts 338°
2026-05-04 18:01 47.01353 29.04418 7301 ft 267 kts 337°
2026-05-04 18:01 47.02877 29.02792 8186 ft 278 kts 317°
2026-05-04 18:01 47.03839 29.00276 9051 ft 293 kts 290°
2026-05-04 18:02 47.04310 28.94144 10380 ft 318 kts 280°
2026-05-04 18:02 47.04926 28.83708 11966 ft 349 kts 279°
2026-05-04 18:03 47.05135 28.80138 12649 ft 353 kts 279°
2026-05-04 18:03 47.05348 28.76528 13341 ft 357 kts 279°